Regional Weather Roundup
Issued by NWS

Home | Current Version | Previous Version | Graphics & Text | Print | Product List | Glossary On
Versions: 1 2 3 4 5 6 7 8 9 10 11 12 13 14 15 16 17 18 19 20 21 22 23 24 25 26 27 28 29 30 31 32 33 34 35 36 37 38 39 40 41 42 43 44 45 46 47 48 49 50
000
ASUS43 KLOT 021212
RWRIL

ILLINOIS REGIONAL WEATHER ROUNDUP
NATIONAL WEATHER SERVICE CHICAGO/ROMEOVILLE IL
700 AM CDT TUE JUN 02 2015

NOTE: "FAIR" INDICATES FEW OR NO CLOUDS BELOW 12,000 FEET WITH NO
SIGNIFICANT WEATHER AND/OR OBSTRUCTIONS TO VISIBILITY.

* THESE STATIONS ARE NOT UNDER NWS QUALITY CONTROL. THEY ALSO MAY NOT
  REPORT WEATHER SUCH AS PRECIPITATION OR FOG.

ILZ001-002-007-009-015-016-024-021300-
NORTHWEST ILLINOIS

CITY           SKY/WX    TMP DP  RH WIND       PRES   REMARKS
MOLINE         SUNNY     51  46  83 E6        30.19R
6HR MIN TEMP:  48; 6HR MAX TEMP:  54;

STERLING*      MOSUNNY   48  43  81 CALM      30.20S
SAVANNA*       MOSUNNY   50  42  73 E3        30.20R
$$

ILZ003-004-008-010-011-017-018-021300-
NORTH CENTRAL ILLINOIS

CITY           SKY/WX    TMP DP  RH WIND       PRES   REMARKS
ROCKFORD       PTSUNNY   49  42  77 CALM      30.23R
6HR MIN TEMP:  43; 6HR MAX TEMP:  49;

FREEPORT*      MOSUNNY   44  41  89 CALM      30.22R
ROCHELLE*      MOSUNNY   47  40  78 CALM      30.21R
DE KALB*       SUNNY     47  39  75 CALM      30.21R
PERU*          SUNNY     49  40  71 NE5       30.20R
$$

ILZ005-006-012>014-019>023-021300-
NORTHEAST ILLINOIS

CITY           SKY/WX    TMP DP  RH WIND       PRES   REMARKS
CHICAGO-OHARE  MOSUNNY   48  42  80 CALM      30.20R
6HR MIN TEMP:  42; 6HR MAX TEMP:  48;

CHICAGO-MIDWAY MOSUNNY   52  44  74 CALM      30.21R
6HR MIN TEMP:  45; 6HR MAX TEMP:  52;

AURORA         SUNNY     48  40  73 NE3       30.21R
6HR MIN TEMP:  42; 6HR MAX TEMP:  48;

LANSING*       SUNNY     47  43  87 CALM      30.21R
JOLIET*        SUNNY     49  44  83 CALM      30.20F
WAUKEGAN       SUNNY     48  42  80 NE3       30.20S
6HR MIN TEMP:  38; 6HR MAX TEMP:  48;

DUPAGE AIRPORT SUNNY     47  41  80 N3        30.20R
6HR MIN TEMP:  41; 6HR MAX TEMP:  47;

KANKAKEE*      SUNNY     48  45  89 CALM      30.21R
WHEELING       SUNNY     48  42  80 N3        30.22R
6HR MIN TEMP:  41; 6HR MAX TEMP:  48;

MORRIS*        SUNNY     48  41  79 E3        30.18R
ROMEOVILLE*    SUNNY     48  42  81 CALM      30.21S
NORTHERLY ISL    N/A     51  45  79 N3          N/A
$$

LMZ740>746-021300-
SOUTHERN LAKE MICHIGAN

STATION/POSITION SKY/WX   TEMP    WIND        PRES    VSBY  WAVE
                          AIR SEA DIR/SP/G                  HT/PER
                          (F)     (DEG/KT/KT) (MB)    (MI)  (FT/S)
SOUTHERN BUOY              42 38   60/  6/  6 1023.9R         1
HARRISON CRIB              49     350/  3/  4   N/A
BURNHAM HARBOR             52      30/  2/  4   N/A
CALUMET HARBOR             48      CALM  /  1   N/A
BURNS HARBOR                      170/  3/  7 1023.0R
MICHIGAN CITY              49     130/  7/  8   N/A
MICHIGAN CITY 6N           53 55  180/  6/  8   N/A           1/ 4
ST. JOSEPH                 53 55  210/  4/  6   N/A           1
$$

ILZ025>027-034>036-040-047-049-050-058-095>099-021300-
WEST-CENTRAL ILLINOIS

CITY           SKY/WX    TMP DP  RH WIND       PRES   REMARKS
QUINCY         CLOUDY    57  54  89 E9        30.14S
GALESBURG*     MOSUNNY   51  44  75 E5        30.18R
MACOMB*        SUNNY     50  50  99 NE5       30.20R FOG
JACKSONVILLE*  CLOUDY    58  56  91 E6        30.15F FOG
PITTSFIELD*    PTSUNNY   57  54  89 E3        30.16S
$$

ILZ028>032-037-038-041>044-048-051>054-059>061-021300-
CENTRAL ILLINOIS

CITY           SKY/WX    TMP DP  RH WIND       PRES   REMARKS
PONTIAC        SUNNY     51  46  83 E5        30.20S
BLOOMINGTON    SUNNY     53  49  86 E5        30.19R
DECATUR        SUNNY     55  51  86 E6        30.17R
PEORIA         SUNNY     54  45  71 NE3       30.18R
6HR MIN TEMP:  50; 6HR MAX TEMP:  56;

LACON*         SUNNY     48  42  80 CALM      30.19R
LINCOLN*       CLOUDY    55  51  86 CALM      30.16F
SPRINGFIELD    PTSUNNY   58  53  84 CALM      30.17S
6HR MIN TEMP:  54; 6HR MAX TEMP:  58;

TAYLORVILLE    SUNNY     52  52 100 N3        30.16S FOG
$$

ILZ033-039-045-046-055>057-062-063-021300-
EAST-CENTRAL ILLINOIS

CITY           SKY/WX    TMP DP  RH WIND       PRES   REMARKS
CHAMPAIGN      SUNNY     55  50  83 NE8       30.17S
DANVILLE*      SUNNY     52  49  91 NE5       30.16R
RANTOUL*       SUNNY     55  50  85 CALM      30.18S
MATTOON        SUNNY     53  49  86 NE7       30.15S FOG
PARIS*         SUNNY     53  50  90 NE3       30.18R
$$

ILZ079-100>102-021300-
SOUTHWEST ILLINOIS

CITY           SKY/WX    TMP DP  RH WIND       PRES   REMARKS
ALTON          MOSUNNY   57  57 100 N7        30.15F
BELLEVILLE     CLOUDY    59  58  99 N2        30.13R
CAHOKIA*       CLOUDY    61  57  87 NE6       30.14R FOG
SPARTA*        CLOUDY    58  56  92 CALM      30.14S
$$

ILZ064>066-069>071-074>076-080>082-084>086-088>090-092>094-021300-
SOUTH-CENTRAL ILLINOIS

CITY           SKY/WX    TMP DP  RH WIND       PRES   REMARKS
CARBONDALE     CLOUDY    59  56  89 N3        30.13R
6HR MIN TEMP:  58; 6HR MAX TEMP:  59;

CAIRO*         CLOUDY    59  57  91 N6        30.12R
EFFINGHAM*     CLOUDY    56  52  86 NE3       30.17R FOG
MARION         CLOUDY    59  57  94 MISG      30.14R FOG
MT. VERNON     CLOUDY    57  52  82 CALM      30.15R
CENTRALIA*     CLOUDY    58  52  80 CALM      30.15R
SALEM*         CLOUDY    60  53  79 CALM      30.15S
$$

ILZ067-068-072-073-078-083-087-091-021300-
SOUTHEAST ILLINOIS

CITY           SKY/WX    TMP DP  RH WIND       PRES   REMARKS
LAWRENCEVILLE  CLOUDY    57  51  80 N6        30.15R
FLORA*         CLOUDY    57  53  84 CALM      30.15S
FAIRFIELD*     CLOUDY    58  54  86 N5        30.14R
HARRISBURG*    DRIZZLE   58  58 100 NE5       30.14R
ROBINSON*      CLOUDY    56  51  83 NE5       30.16R
CARMI*         CLOUDY    57  54  88 NE5       30.14R HAZE
$$

ABBREVIATIONS USED IN REMARKS
   TC - TEMPERATURE IN CELSIUS
  WCI - WIND CHILL INDEX
   HX - HEAT INDEX
  VSB - VISIBILITY
$$




USA.gov is the U.S. government's official web portal to all federal, state and local government web resources and services.